www.pogodaiklimat.ru

Погода и климат >> Архив погоды >> Индия >> Wardha


ПОГОДА в Wardha

  • Прогноз погоды в Wardha
  • Монитор погоды в Wardha
  • Климат города

АРХИВ ПОГОДЫ в Wardha

Время (UTC), дата Ветер
(напр.,м/с)
 
Видим.   Явления Облачность Т
(С)
Тd
(С)
f
(%)
Тe
(С)
Тes
(С)
Комфортность P
(гПа)
Po
(гПа)
Тmin
(С)
Tmax
(С)
R
(мм)
R24
(мм)
S
(см)
12 17.01 штиль 0 4000 м ясно +30.5 +11.4 31 +31 +31 жарко 1011.9 1012.0 +32.6
03 18.01 штиль 0 2000 м ясно +14.8 +8.0 64 +15 +19 1016.7 1017.0 +13.0
06 18.01 В 1 4000 м ясно +28.2 +10.3 33 +29 +43 жарко 1013.0 1013.0
09 18.01 В 2 4000 м ясно +30.8 +11.4 30 +31 +40 жарко 1011.9 1012.0
12 18.01 штиль 0 4000 м ясно +28.5 +8.3 28 +28 +28 жарко 1012.9 1013.0 +31.0
03 19.01 штиль 0 2000 м ясно +15.0 +6.8 58 +15 +19 1017.6 1018.0 +11.5
06 19.01 штиль 0 4000 м ясно +26.9 +9.4 33 +27 +44 жарко 1017.8 1018.0
09 19.01 штиль 0 4000 м ясно +29.5 +12.4 35 +31 +42 жарко 1014.4 1014.0
12 19.01 штиль 0 4000 м ясно +29.0 +9.8 30 +29 +29 жарко 1012.9 1013.0 +30.3
03 20.01 штиль 0 2000 м 1/0
[Ci fib]
+14.6 +8.3 66 +14 +18 1017.6 1018.0 +11.0
06 20.01 штиль 0 4000 м ясно +27.5 +10.9 35 +28 +45 жарко 1016.7 1017.0
09 20.01 штиль 0 4000 м ясно +29.0 +11.8 35 +30 +41 жарко 1013.5 1014.0
12 20.01 штиль 0 4000 м ясно +29.2 +11.6 34 +30 +30 жарко 1012.0 1012.0 +31.5
03 21.01 штиль 0 4000 м ясно +14.5 +9.8 73 +14 +18 1016.8 1017.0 +12.0
06 21.01 штиль 0 4000 м ясно +27.6 +13.0 41 +29 +46 жарко 1015.6 1016.0
09 21.01 З 1 4000 м ясно +29.0 +10.3 31 +29 +40 жарко 1011.9 1012.0
12 21.01 штиль 0 4000 м ясно +29.0 +12.7 37 +30 +30 жарко 1012.1 1012.0 +31.0
03 22.01 штиль 0 2000 м 1/0
[Ci fib]
+15.0 +5.3 52 +15 +19 1014.3 1014.0 +12.1
06 22.01 штиль 0 4000 м ясно +27.5 +12.3 39 +29 +46 жарко 1013.3 1013.0
09 22.01 В 1 4000 м ясно +30.1 +13.3 36 +32 +42 жарко 1010.4 1010.0
12 22.01 штиль 0 4000 м ясно +29.0 +12.3 36 +30 +30 жарко 1008.8 1009.0 +30.8
03 23.01 З 1 4000 м ясно +15.5 +10.9 74 +16 +20 1013.1 1013.0 +12.1
06 23.01 Ю 2 2000 м ясно +26.4 +14.8 49 +29 +43 жарко 1012.1 1012.0
09 23.01 штиль 0 4000 м 1/0
[Ac trans]
+31.2 +14.5 36 +33 +44 жарко 1009.2 1009.0
12 23.01 штиль 0 4000 м ясно +30.4 +14.3 38 +32 +32 жарко 1008.1 1008.0 +32.0
03 24.01 штиль 0 2000 м ясно +19.0 +10.6 58 +20 +24 1013.0 1013.0 +15.8
06 24.01 С 2 4000 м ясно +26.4 +10.9 38 +27 +41 жарко 1013.0 1013.0
09 24.01 штиль 0 4000 м ясно +31.5 +14.6 36 +33 +45 жарко 1010.9 1011.0

 

Местоположение метеостанции Wardha (Maharashtra, Индия): широта 20.67 долгота 78.58 высота над уровнем моря 283 м.

В архиве по умолчанию представлена погода в Wardha за последнюю неделю. Архивные данные за месяц целиком и за предыдущие месяцы, начиная с января 2011 года, Вы можете получить, выбрав интересующий диапазон дат из раскрывающегося списка и нажав кнопку "Ввод!".

Внимание! Время в таблицах - всемирное. Для получения местного времени необходимо прибавить поправку, которая в Wardha равна 5.5 ч.

Смотрите также архив погоды в соседних городах и на ближайших метеорологических станциях:

Погода в Yeotmal (Maharashtra, Индия) (54 км)
Погода в Nagpur (Maharashtra, Индия) (68 км)
Погода в Amravati (Maharashtra, Индия) (88 км)
Погода в Chandrapur (Maharashtra, Индия) (108 км)
Погода в Adilabad (Telangana, Индия) (114 км)
Погода в Bramhapuri (Maharashtra, Индия) (132 км)
Погода в Betul (Madhya Pradesh, Индия) (150 км)
Погода в Akola (Maharashtra, Индия) (161 км)
Погода в Washim (Maharashtra, Индия) (163 км)
Погода в Chhindwara (Madhya Pradesh, Индия) (165 км)

Пояснения к столбцам:

Ветер - указаны скорость ветра в м/с - средняя за 10 мин, порывы в срок и между сроками (в фигурных скобках) и направление, откуда дует ветер: С - северный, СВ - северо-восточный, В - восточный, ЮВ - юго-восточный, Ю - южный, ЮЗ - юго-западный, З - западный, СЗ - северо-западный.
Видимость - горизонтальная дальность видимости в метрах или километрах. При видимости от 1 до 10 км при отсутствии осадков обычно наблюдается дымка, при ухудшении видимости до 1 км и менее - туман. В сухую погоду видимость может ухудшаться дымом, пылью или мглою.
Явления - указаны атмосферные явления, наблюдавшиеся в срок или в последний час перед сроком; фигурными скобками обозначены явления, наблюдавшиеся между сроками (за 1-3 часа до срока); квадратными скобками обозначены град или гололедные отложения с указанием их диаметра в мм.
Облачность - указаны через наклонную черту общая и нижняя облачность в баллах и высота нижней границы облаков в метрах; квадратными скобками обозначены формы облаков: Ci - перистые, Cs - перисто-слоистые, Cc - перисто-кучевые, Ac - высококучевые, As - высокослоистые, Sc - слоисто-кучевые, Ns - слоисто-дождевые, Cu - кучевые, Cb - кучево-дождевые. Подробнее классификацию облаков см. в Атласе облаков (PDF).
T - Температура воздуха - температура, измеренная на высоте 2 м над землей.
Td - Температура точки росы - температура, при понижении до которой содержащийся в воздухе водяной пар достигнет насыщения.
f - Относительная влажность воздуха - влажноcть воздуха, измеренная на высоте 2 м над землей.
Te - Эффективная температура - температура, которую ощущает одетый по сезону человек в тени. Характеристика душности погоды. При расчете учитывается влияние влажности воздуха и скорости ветра на теплоощущения человека.
Tes - Эффективная температура на солнце - температура, которую ощущает человек, с поправкой на солнечный нагрев. Характеристика знойности погоды. Зависит от высоты солнца над горизонтом, облачности и скорости ветра. Ночью, в пасмурную погоду, а также при ветре 12 м/с и более поправка равна нулю.
P - Атмосферное давление - приведенное к уровню моря атмосферное давление.
Po - Атмосферное давление - измеренное на уровне метеостанции атмосферное давление.
Tmin - Минимальная температура - минимум температуры воздуха на высоте 2 м над землей.
Tmax - Максимальная температура - максимум температуры воздуха на высоте 2 м над землей.
R - Количество осадков - Количество выпавших осадков за период времени, мм. При наведении курсора мыши на число - период времени, за который выпало указанное количество осадков.
R24 - Количество осадков - Количество выпавших осадков за 24 часа, мм.
S - Снежный покров - Высота снежного покрова, см. При наведении курсора мыши на число - состояние снежного покрова и степень покрытия местности в баллах.